Dewpoint
57 57 58 58 59 58 59 58 58 59 59 59 59 59 59 60 59 55 44 42 47 64 61 38 40 36 33 32 28 24 20 22 28 44 43 43 39 42 49 54 55 56 55 53 54
56 57 57 58 58 58 58 58 58 58 58 58 58 58 59 60 54 48 53 64 64 67 29 33 31 33 30 25 27 20 19 18 22 39 41 40 40 40 51 53 55 56 55 53 53
55 56 57 57 58 58 58 58 58 58 58 58 58 58 59 58 45 45 65 64 67 62 25 31 29 29 28 22 20 18 17 19 19 23 27 40 40 42 51 51 54 53 52 53 53
55 56 57 57 57 57 58 58 58 58 58 57 57 58 59 54 18 32 62 63 66 45 31 30 32 25 18 17 18 16 17 17 17 20 36 39 40 43 47 52 56 54 54 53 53
55 56 56 56 57 57 57 58 57 57 57 57 57 59 50 37 36 50 63 62 41 29 28 31 31 21 25 16 16 15 15 16 18 21 26 41 42 43 45 54 56 55 54 54 54
55 55 55 56 56 57 57 57 56 56 56 57 58 59 50 35 35 50 42 41 21 28 29 30 30 18 14 14 14 16 13 15 16 19 24 42 43 43 51 55 55 55 55 55 54
55 55 55 55 56 56 57 56 56 55 56 57 57 54 45 30 31 43 33 26 19 30 30 30 28 22 13 9 12 14 13 14 15 19 23 42 42 42 50 54 54 52 52 53 54
55 54 54 55 55 56 57 56 55 55 56 58 58 50 37 36 37 34 32 24 24 24 28 25 18 12 8 13 16 12 17 14 15 18 20 32 40 42 48 51 51 51 52 52 53
55 54 54 54 55 56 56 55 55 56 58 58 51 44 35 45 34 31 28 25 23 23 23 21 17 10 17 16 14 15 12 14 13 16 20 29 41 43 46 48 48 49 50 51 51
55 54 53 54 55 55 55 54 53 54 54 51 46 37 34 34 30 31 29 29 26 25 19 16 16 15 16 15 12 11 14 13 13 13 15 19 40 44 44 43 44 48 47 48 49
55 54 53 54 54 55 53 46 31 26 30 19 28 36 32 28 27 29 30 31 29 17 12 13 12 12 12 16 16 15 16 14 14 14 18 16 25 45 48 47 50 50 49 45 46
56 55 54 54 54 55 51 41 34 24 21 21 20 21 22 23 22 26 32 28 23 15 14 12 10 12 15 16 16 13 12 10 11 12 17 20 33 47 48 46 48 46 46 46 45
55 54 53 53 54 51 46 40 39 35 24 23 21 20 20 20 22 21 31 25 21 21 11 9 10 14 14 13 12 10 8 9 10 16 16 23 33 46 47 49 48 48 46 47 45
55 53 53 54 48 48 44 42 39 35 24 27 26 23 21 19 19 23 30 26 23 19 17 12 10 12 14 13 14 12 13 10 13 12 7 19 10 30 45 46 48 48 49 48 45
55 54 53 55 49 47 43 45 45 33 21 26 23 22 19 18 22 21 25 27 23 22 17 16 17 14 13 15 17 14 17 19 20 14 9 11 14 17 33 44 44 46 46 48 45
55 54 53 49 50 50 50 47 35 23 23 27 19 17 16 18 19 19 19 28 27 26 25 23 24 19 17 16 15 17 16 18 17 12 9 12 11 11 14 17 25 39 44 41 45
55 54 53 48 47 49 47 40 24 21 23 21 16 16 15 15 17 17 18 23 23 22 23 24 24 20 13 15 14 15 15 14 16 11 10 17 15 13 17 18 18 19 32 37 44
54 52 51 50 50 49 46 32 24 21 17 15 15 15 13 13 13 14 17 21 24 25 25 22 21 19 16 12 11 13 14 16 13 17 18 20 18 21 34 44 42 41 45 63 64
53 49 48 42 49 49 43 32 26 26 21 23 21 14 16 14 14 15 18 21 21 24 23 25 25 26 19 14 14 15 15 16 17 21 18 19 22 30 41 46 55 56 61 63 59
49 45 41 40 47 46 41 37 30 29 28 26 23 20 15 12 12 12 18 23 24 24 25 24 22 25 20 14 18 12 16 13 21 18 16 21 29 34 42 47 55 57 57 53 53
49 45 44 36 47 43 39 36 32 30 29 28 24 23 28 21 12 17 21 23 25 26 25 23 24 24 21 18 15 17 15 18 20 25 18 21 32 39 46 50 56 54 53 51 52
48 35 46 40 40 41 38 38 35 30 30 28 27 23 28 33 33 16 23 23 26 26 24 25 29 27 30 31 32 20 19 18 19 23 27 29 35 43 49 51 58 58 57 53 55
44 43 48 40 28 37 38 37 36 32 30 28 25 23 32 32 32 31 26 35 27 28 25 29 28 23 23 29 33 35 35 30 31 30 25 28 37 52 54 51 49 59 59 60 61
44 41 45 45 32 35 36 35 33 33 30 29 26 24 27 27 39 38 37 37 37 41 53 42 29 25 25 31 34 35 35 32 33 28 30 38 44 51 55 56 56 59 62 62 62
48 42 44 40 35 36 35 33 30 28 28 27 23 24 27 34 39 39 42 35 32 43 43 35 31 31 33 33 35 35 33 30 29 31 34 43 45 47 54 57 57 60 61 62 61
46 46 48 46 44 36 36 32 31 30 33 22 24 28 33 34 36 37 40 40 39 35 36 37 30 29 27 29 27 32 44 43 45 44 44 45 46 50 56 58 59 60 61 61 61
51 53 50 46 44 39 35 33 33 34 34 24 24 30 36 35 44 45 47 45 43 40 39 36 34 32 27 30 27 38 45 46 47 49 46 46 49 51 56 56 56 58 60 61 61
Lifted_Index
11 11 11 11 11 11 12 12 12 11 12 12 12 12 12 12 11 11 10 10 10 10 10 10 10 9 8 6 5 4 2 2 3 2 0 -0 -0 -0 -1 -1 -1 0 2 3 3
11 11 11 11 11 11 12 12 12 12 12 12 12 12 12 11 11 9 9 9 9 10 10 10 10 9 7 6 5 3 2 2 3 2 0 -0 -0 -0 -1 -1 -0 1 2 3 3
12 12 11 11 11 11 11 12 12 12 12 12 12 12 11 10 9 8 8 8 8 10 11 10 9 8 7 6 4 3 2 2 2 1 0 -1 -1 -0 -1 -0 0 1 2 3 3
12 12 12 11 11 11 11 11 12 12 12 13 13 12 11 9 7 7 7 8 9 10 10 10 9 8 6 5 4 3 3 3 3 2 -0 -2 -1 -1 -0 -0 0 1 2 2 2
12 12 12 12 12 12 12 12 12 12 13 13 13 12 11 9 7 7 8 9 10 10 10 9 8 7 6 5 4 3 3 4 4 2 -0 -2 -1 -1 -1 -1 -0 1 1 2 2
13 13 12 12 12 11 12 12 12 13 13 13 12 12 10 9 8 7 8 9 10 10 10 9 8 7 6 5 5 4 4 4 4 2 0 -1 -1 -1 -1 -1 -1 -0 1 1 1
13 13 13 12 12 11 11 12 12 13 13 12 12 11 10 9 8 8 8 9 10 10 10 9 9 8 7 6 6 5 4 4 4 2 1 -1 -1 -0 -1 -1 -1 -1 -0 0 0
14 14 14 13 12 12 11 12 12 12 12 12 11 10 9 9 9 8 8 9 10 10 10 10 9 8 8 7 6 5 4 3 3 2 1 0 -0 -0 -1 -1 -1 -1 -0 0 0
14 14 14 14 13 12 12 11 11 11 10 10 10 10 9 9 9 9 8 8 9 10 10 9 9 8 7 6 5 4 4 3 2 2 1 1 -0 -0 -1 -1 -1 -1 -0 0 0
14 15 15 15 14 13 12 11 10 10 9 9 9 9 9 8 8 8 8 8 8 9 9 9 8 7 5 4 3 3 3 2 2 2 1 1 0 -1 -1 -1 -1 -0 0 0 0
14 15 15 15 14 13 12 11 10 9 9 9 9 9 8 8 8 8 8 8 7 8 8 8 6 5 5 4 4 3 3 3 2 1 1 1 0 -1 -1 -1 -1 -0 0 0 0
14 14 15 15 14 13 12 10 9 9 8 8 9 8 8 8 8 7 7 7 7 7 7 6 5 4 5 5 4 4 3 3 2 2 1 1 -0 -1 -1 -1 -1 -0 0 0 -0
13 14 15 15 14 13 11 10 9 9 8 7 7 7 7 7 7 6 6 6 7 7 6 5 5 5 5 4 4 3 3 3 3 2 1 1 -0 -1 -1 -1 -1 -1 0 0 0
12 13 15 15 14 12 10 9 9 8 6 5 5 6 6 7 6 6 6 6 7 7 6 5 4 5 4 4 4 3 3 3 3 2 1 0 0 -0 -1 -1 -1 -1 -0 0 0
11 13 14 15 14 12 10 9 9 7 4 4 5 5 6 6 6 6 6 6 6 6 6 5 4 4 4 3 3 3 3 3 3 2 1 1 1 1 0 -0 -0 -0 -0 -0 -0
11 12 14 14 13 11 10 9 8 6 4 3 4 4 5 5 6 6 6 6 6 6 6 5 4 4 3 3 3 3 3 2 2 2 1 1 1 1 0 0 0 0 0 -0 -1
10 12 13 13 12 10 9 8 6 5 4 3 4 4 4 4 5 6 6 6 6 5 5 4 4 4 3 3 3 3 2 2 1 1 1 1 0 0 0 0 0 0 -0 -1 -1
9 10 12 12 10 9 8 7 6 4 3 4 4 4 4 4 5 5 5 5 5 5 4 4 3 3 3 2 2 2 2 1 1 0 0 0 0 0 0 -0 -0 -1 -2 -3 -4
5 6 8 9 8 7 7 7 6 4 4 4 4 4 4 4 4 5 5 5 5 5 4 3 2 2 2 1 1 1 2 1 1 0 0 0 0 -0 -1 -1 -2 -2 -4 -5 -5
2 3 5 6 6 5 6 7 6 5 4 4 3 3 3 3 3 4 4 4 4 4 3 3 2 1 1 1 1 1 1 1 1 0 -0 -0 -0 -1 -1 -2 -3 -3 -4 -4 -4
1 1 3 4 4 4 5 6 6 5 4 4 3 2 2 2 2 3 3 3 3 3 3 2 1 1 1 1 1 1 1 1 1 0 -0 -0 -1 -1 -2 -3 -3 -3 -3 -4 -4
1 1 2 3 3 3 4 5 5 5 4 4 3 3 2 1 1 1 2 2 2 2 2 2 1 0 0 0 0 1 0 0 0 0 -0 -0 -1 -2 -3 -3 -4 -3 -3 -3 -3
1 1 1 2 3 3 3 3 4 4 4 4 4 3 2 0 -0 0 0 1 1 1 1 1 1 0 -0 -0 0 -0 -0 -0 -0 -0 -0 -1 -2 -3 -4 -4 -4 -4 -4 -4 -4
2 2 1 2 3 3 2 2 3 3 4 4 4 3 1 -0 -1 -1 -1 -0 -0 -0 -0 1 1 0 -0 -0 -0 -1 -1 -1 -0 -0 -1 -1 -2 -3 -4 -4 -5 -5 -5 -5 -5
2 2 1 1 1 1 1 2 2 3 3 4 4 3 1 -0 -1 -1 -1 -1 -1 -1 -1 -0 0 0 -0 -0 -0 -0 -1 -1 -1 -1 -1 -1 -2 -3 -4 -4 -4 -5 -5 -5 -5
2 1 1 0 0 0 1 1 1 2 2 3 4 3 2 0 -1 -1 -1 -1 -0 -1 -1 -0 -0 0 0 0 -0 -1 -1 -2 -2 -2 -2 -2 -2 -3 -4 -4 -4 -4 -4 -4 -4
1 1 1 0 -0 -0 1 1 1 1 2 3 3 3 2 0 -0 -1 -1 -0 -0 -0 -0 -0 0 0 0 0 -0 -1 -1 -2 -2 -2 -2 -2 -2 -3 -3 -3 -3 -3 -4 -4 -4